Temperature
21 18 18 19 20 20 20 19 18 17 16 15 14 13 13 14 13 13 12 12 12 13 13 14 14 14 15 15 15 16 16 16 17 17 17 17 18 18 18 18 18 18 18 18
18 18 19 19 19 19 19 18 17 17 16 15 13 13 13 13 13 13 12 12 12 12 13 13 13 14 14 14 15 15 15 16 16 16 16 17 17 18 18 18 18 18 18 18
18 18 19 19 18 19 19 18 18 17 15 14 14 14 13 13 13 13 12 12 12 12 12 12 13 13 13 14 14 14 14 15 15 15 16 16 16 17 17 17 18 18 18 17
18 18 18 18 17 18 18 18 18 17 15 13 14 13 12 11 12 12 12 12 12 12 12 12 12 13 13 13 13 13 14 14 14 15 15 15 16 16 16 16 17 17 17 17
18 18 17 17 18 17 17 17 16 16 14 13 12 12 12 11 11 11 12 12 12 12 12 12 12 12 12 13 13 13 13 14 14 14 14 15 15 15 15 16 16 16 17 17
17 18 18 18 17 17 16 15 14 12 12 12 12 12 11 11 11 11 12 12 12 12 12 12 12 12 12 12 13 13 13 13 13 14 14 14 14 15 15 15 15 16 16 16
17 17 17 17 17 16 14 14 14 14 12 12 12 12 12 12 12 12 11 12 12 12 12 12 12 12 12 12 12 12 13 13 13 13 14 14 14 14 15 15 15 15 15 15
17 16 16 16 16 16 14 14 14 15 13 12 12 12 12 13 13 13 12 12 12 12 12 12 12 12 12 12 12 12 12 12 13 13 13 13 14 14 14 15 15 15 15 15
15 16 17 17 16 16 15 13 13 11 12 12 12 12 12 13 12 13 13 13 13 13 13 12 13 12 12 12 12 12 12 12 12 12 13 13 13 13 14 14 14 14 15 15
15 16 16 16 16 15 14 13 11 12 13 12 12 12 11 12 12 11 12 12 13 13 13 13 13 13 12 12 12 12 12 12 12 12 12 13 13 13 13 14 14 14 14 14
15 15 15 15 15 15 14 13 10 10 11 12 12 12 12 12 11 11 12 13 13 13 13 13 13 13 13 12 12 12 12 12 12 12 12 12 13 13 13 13 14 14 14 14
14 12 13 15 15 15 15 14 12 12 11 10 10 11 13 12 12 12 12 13 13 13 13 13 13 13 13 12 12 12 12 12 12 12 12 12 12 13 13 13 13 14 14 14
14 13 13 15 14 15 15 14 12 10 9 10 11 12 12 12 12 13 13 13 13 13 13 13 13 13 13 12 12 12 11 11 12 12 12 12 12 12 13 13 13 13 13 14
14 12 14 15 15 14 15 14 13 12 11 11 11 12 12 12 12 13 13 13 13 13 13 13 13 13 13 12 12 12 11 11 12 12 12 12 12 12 12 12 13 13 13 13
13 14 15 15 15 15 15 15 14 13 12 11 12 12 12 12 12 13 13 13 13 13 13 13 13 13 13 12 12 12 11 11 11 12 12 12 12 12 12 12 12 13 13 13
12 14 15 15 15 15 15 15 14 14 13 12 13 13 13 13 13 14 14 13 13 13 13 13 13 13 13 12 12 12 12 11 11 11 11 11 11 12 12 12 12 12 13 13
12 13 13 14 14 15 15 15 14 14 14 13 13 13 13 13 13 14 14 13 13 13 13 13 13 13 13 12 12 12 12 11 11 11 11 11 11 11 11 11 12 12 12 12
12 11 10 12 15 16 15 15 14 14 14 13 13 13 13 14 14 14 14 14 13 13 13 13 13 13 13 13 12 12 12 12 12 11 11 11 11 11 11 11 11 11 12 12
11 11 11 11 13 14 15 15 14 14 14 13 13 13 14 14 13 14 14 14 13 13 13 13 13 13 13 13 12 12 12 12 12 11 11 11 11 11 11 11 11 11 11 12
11 10 10 11 15 15 16 15 16 15 14 14 14 14 13 13 11 12 14 14 14 13 13 13 13 13 13 13 13 12 12 12 12 11 11 11 11 11 11 11 11 11 11 11
14 12 11 12 13 13 14 15 15 14 14 15 15 15 14 14 13 15 14 14 14 14 14 14 13 13 13 13 13 13 12 12 12 11 11 11 11 11 11 11 11 11 11 11
13 12 11 10 13 15 15 14 13 14 16 16 16 16 15 15 15 14 14 14 14 14 14 14 14 13 13 13 13 13 12 12 12 11 11 11 11 11 11 11 11 11 11 11
12 12 11 12 14 15 16 16 17 17 17 16 16 16 15 15 15 14 14 14 14 14 14 14 14 14 13 13 13 13 12 12 12 11 11 11 11 11 11 10 11 11 11 11
12 12 11 11 12 15 16 17 17 17 17 17 16 16 15 15 15 14 14 14 14 14 14 14 14 14 13 13 13 13 12 12 12 11 11 11 11 10 10 10 10 10 10 10
13 11 12 13 13 15 17 17 17 17 17 16 16 15 15 15 15 14 14 14 14 14 14 14 14 14 13 13 13 13 12 12 12 11 11 11 11 10 10 10 10 10 10 10
13 12 13 14 17 16 18 19 18 17 17 16 16 15 15 15 14 14 14 14 14 14 14 14 14 14 13 13 13 13 12 12 12 11 11 11 11 10 10 10 10 10 10 10
Wind_Speed
7 8 5 4 3 3 4 5 5 4 4 8 10 8 6 8 12 13 13 13 13 13 11 12 12 12 11 12 11 10 11 10 8 5 4 4 5 5 6 6 8 9 8 9
8 6 5 4 6 7 6 6 4 4 5 6 7 6 4 6 9 9 10 12 13 15 15 15 14 13 12 12 12 11 11 11 9 7 5 4 4 4 5 5 6 8 8 7
8 3 4 6 8 6 4 4 3 3 5 5 4 3 6 5 6 9 10 10 11 14 15 15 15 13 13 12 12 12 11 11 10 9 6 5 3 2 3 4 5 6 7 7
7 5 6 7 6 4 1 2 1 5 5 2 1 1 5 7 8 12 13 12 13 13 13 13 14 14 14 13 12 11 11 11 10 9 7 5 4 4 4 3 4 4 6 7
4 4 7 6 4 4 2 3 3 4 5 4 6 3 5 6 8 11 13 13 13 13 13 13 13 13 13 13 12 11 11 10 10 9 8 6 4 3 3 2 3 4 4 6
5 3 3 2 2 3 1 5 7 6 5 3 3 2 4 5 7 10 11 12 13 13 13 13 13 12 12 12 12 11 12 11 11 10 9 7 5 4 3 2 2 2 2 3
7 7 7 4 5 7 7 5 4 5 5 2 2 2 2 4 5 6 10 12 12 11 11 12 13 14 13 14 13 12 13 12 12 11 10 8 7 5 4 3 2 2 2 2
4 5 7 6 3 2 4 5 5 3 2 3 3 1 4 4 5 6 7 8 10 11 11 11 11 11 12 13 13 13 13 13 13 12 10 9 8 5 4 3 2 2 2 2
5 1 3 4 4 3 3 4 3 6 2 1 3 3 4 2 6 7 8 9 10 11 12 12 11 11 11 12 12 13 13 12 12 12 11 9 9 8 6 4 3 2 1 1
6 5 4 4 6 7 6 5 5 4 2 2 4 3 3 5 7 8 9 10 10 11 11 12 11 10 10 10 10 11 11 11 10 11 10 9 9 8 7 5 5 4 3 2
4 5 4 5 5 5 5 5 6 4 4 3 2 4 4 4 5 6 9 9 9 10 10 10 10 10 9 9 10 10 11 11 11 11 10 10 9 8 8 7 6 5 4 3
4 5 3 2 3 1 3 3 4 3 1 3 2 5 4 3 4 5 8 9 9 9 9 9 9 9 9 10 10 10 11 10 11 10 9 10 9 9 9 9 8 7 6 5
5 6 4 4 5 4 3 3 4 5 5 3 2 5 3 2 4 5 6 8 8 9 9 8 9 9 9 9 9 9 10 10 10 10 10 10 10 10 10 9 9 8 7 6
5 5 5 4 4 3 1 2 4 4 3 2 4 5 5 4 5 6 6 7 7 8 8 8 8 9 9 8 8 8 9 10 10 10 10 10 11 10 9 9 9 9 8 7
5 5 3 1 1 2 1 1 3 4 5 5 5 5 6 5 4 4 5 6 7 8 9 9 8 8 8 8 8 8 9 9 9 9 10 10 10 9 9 9 9 9 9 9
4 5 3 3 2 1 1 3 2 3 4 4 3 5 5 3 2 3 5 6 6 7 8 8 8 8 8 8 8 8 8 8 8 9 9 9 10 10 10 9 9 9 9 9
3 4 3 1 3 3 5 5 5 4 4 6 6 6 2 2 3 3 4 5 6 7 7 8 7 7 7 7 6 7 7 7 7 8 8 9 9 9 9 9 9 9 9 8
6 5 4 2 2 3 7 3 5 5 4 6 5 4 5 5 3 2 3 4 6 6 6 7 7 7 6 6 6 6 6 7 7 8 8 9 9 9 9 9 9 9 7 7
4 7 4 3 1 6 6 3 6 5 4 6 6 4 3 3 2 4 3 3 3 4 5 5 5 5 5 6 6 6 6 6 7 7 8 8 8 8 9 9 9 7 7 8
6 6 6 4 2 5 6 3 4 4 4 5 8 7 6 6 1 4 4 2 3 4 4 5 5 4 5 6 5 5 6 6 6 6 6 6 7 8 8 8 7 6 6 7
2 4 4 4 4 8 7 4 6 3 6 5 9 8 8 8 6 4 3 1 2 3 4 5 5 4 5 5 4 5 6 6 5 4 5 7 7 7 7 7 7 7 7 7
7 5 5 5 3 7 6 9 8 9 3 6 8 8 8 7 4 3 2 1 3 4 5 5 5 5 5 4 4 5 5 4 3 4 6 7 7 7 7 7 7 7 7 8
7 8 7 8 7 5 7 8 6 6 6 7 8 7 8 7 5 4 2 1 3 4 4 4 4 5 5 5 4 4 5 3 3 5 6 5 6 7 7 7 7 7 7 7
4 4 4 5 8 7 8 5 5 7 7 7 8 8 8 7 6 5 2 1 2 3 3 4 4 5 5 5 4 3 3 2 3 4 4 4 5 6 6 6 6 6 6 6
7 8 4 6 7 4 6 9 8 7 6 7 7 7 8 8 6 5 3 2 1 2 2 3 3 4 5 5 4 4 3 2 2 3 3 4 4 4 5 5 4 4 4 4
7 9 8 8 8 8 7 8 10 10 9 10 9 7 6 7 7 6 4 3 2 1 2 3 4 4 5 5 4 4 2 1 2 1 1 2 2 2 2 3 4 6 5 8
Wind_Direction
29 55 38 3 35 115 113 111 103 81 93 79 90 85 39 19 28 22 11 3 358 353 345 346 347 345 343 342 340 337 337 332 331 320 297 265 243 231 222 220 218 214 209 205
50 36 352 35 51 72 92 101 93 79 90 103 109 79 33 29 27 14 5 358 354 352 352 354 353 349 345 341 339 338 338 333 330 320 301 273 263 243 224 217 213 205 201 202
95 358 6 61 50 61 65 120 150 139 87 81 117 46 8 357 2 7 9 359 356 355 351 350 349 346 344 342 340 338 333 332 331 325 312 300 274 258 236 216 212 209 192 193
74 18 46 59 45 47 18 331 168 145 122 69 20 227 349 337 345 360 359 355 351 348 346 345 347 345 344 341 338 336 333 332 331 331 326 312 292 272 262 242 222 204 192 189
69 33 48 46 8 8 318 17 75 109 119 81 28 85 315 339 352 346 343 345 345 344 344 345 346 343 341 342 342 340 337 337 337 338 337 324 313 296 286 248 215 205 200 192
54 26 51 13 16 33 28 72 62 56 73 55 341 62 328 335 321 322 330 337 339 341 343 344 346 344 344 345 347 346 346 345 345 343 343 341 335 322 308 277 241 220 209 198
29 10 2 20 25 16 47 77 40 10 22 302 319 90 278 283 300 308 317 327 332 336 341 345 349 346 344 346 348 349 350 349 349 350 349 344 341 335 320 302 271 239 214 212
94 6 352 13 44 8 48 97 133 193 226 286 355 304 260 269 305 312 319 326 334 339 340 342 345 341 340 344 348 349 349 350 352 354 353 352 350 343 333 325 311 275 240 225
130 139 336 23 28 73 72 68 128 123 112 21 315 309 314 310 332 334 337 339 336 335 336 337 337 338 339 342 346 348 348 349 352 355 355 357 356 355 353 353 349 332 315 260
128 119 344 339 39 35 94 121 82 87 104 321 317 310 287 302 315 327 331 329 327 329 333 334 335 335 336 338 342 347 350 349 348 352 357 2 358 359 359 4 8 2 353 354
99 112 8 31 39 355 28 57 83 88 119 139 310 291 239 249 289 305 310 315 320 325 327 328 332 333 334 342 348 351 350 351 352 353 354 359 358 1 5 11 10 8 17 29
101 107 75 332 300 285 100 101 129 122 102 129 166 272 278 256 282 290 304 315 321 324 325 327 331 338 345 347 348 351 351 352 352 354 357 0 2 7 13 13 10 11 20 30
126 103 80 357 345 4 59 80 102 112 109 130 163 273 296 320 312 305 307 316 323 330 334 338 341 343 343 344 347 349 351 351 351 356 3 7 8 12 13 12 13 14 20 28
108 92 139 169 215 207 98 107 133 118 127 186 221 256 294 303 305 312 317 320 326 332 335 340 341 340 339 341 347 350 350 352 355 359 5 9 6 7 8 12 17 20 23 29
92 99 111 137 154 147 181 204 168 169 182 186 229 237 262 264 267 292 311 324 334 337 339 341 338 336 338 343 346 351 350 353 356 1 6 5 2 6 12 16 17 23 29 32
69 109 89 33 28 105 290 259 208 191 182 200 230 260 252 237 236 296 316 328 331 331 333 335 339 341 341 341 340 346 349 350 356 4 5 3 5 10 13 14 19 26 28 29
80 111 102 344 346 19 291 238 198 204 198 181 209 238 205 201 237 268 298 317 320 324 327 330 330 329 329 331 336 343 342 347 1 6 5 5 6 11 12 18 25 25 24 28
118 98 107 109 68 268 250 236 186 193 219 205 215 222 196 204 221 261 263 290 310 321 326 325 324 324 326 332 344 346 352 357 3 6 4 4 5 10 13 22 24 22 24 27
115 125 112 115 191 283 288 204 169 176 251 207 197 193 171 138 45 322 275 271 285 304 310 306 309 309 322 338 344 354 359 1 7 5 3 3 8 16 19 21 18 19 27 31
65 89 109 125 171 247 252 205 152 112 276 222 180 177 163 128 111 271 276 291 312 327 322 322 327 336 346 343 350 7 1 6 4 358 359 6 15 24 23 20 19 20 30 32
85 65 115 157 223 261 243 159 122 144 249 202 175 173 166 178 201 231 272 295 333 335 335 345 351 351 338 337 1 13 7 1 351 3 18 24 21 27 28 27 24 21 25 32
170 160 177 155 202 263 192 145 177 212 198 166 170 171 176 195 206 216 227 309 350 352 351 356 354 343 339 352 11 10 360 344 10 31 35 32 27 30 32 33 29 25 25 32
190 188 184 189 213 240 193 196 202 167 168 176 171 175 169 173 186 187 198 300 340 349 348 349 348 342 346 356 9 4 340 353 51 47 40 34 35 35 33 35 32 29 27 32
238 159 162 241 261 243 223 219 188 181 180 176 169 164 163 169 178 180 189 263 331 338 343 348 357 357 345 342 351 345 341 39 77 58 43 37 41 35 31 32 33 34 27 26
214 168 189 249 267 264 236 208 191 177 161 152 154 165 170 167 175 181 191 225 279 316 328 348 351 335 326 332 342 350 11 74 77 61 51 45 45 44 34 32 28 27 20 17
191 177 178 219 214 190 224 203 172 163 170 168 160 162 170 173 179 178 192 215 238 284 321 337 338 330 324 331 336 346 10 81 105 70 44 41 42 43 39 32 25 26 32 33
Height
1532 1540 1549 1546 1544 1544 1547 1553 1559 1561 1561 1566 1571 1574 1573 1571 1567 1564 1562 1559 1555 1552 1549 1545 1541 1537 1533 1529 1526 1523 1519 1517 1514 1512 1510 1510 1510 1510 1511 1513 1515 1517 1519 1521
1543 1551 1548 1545 1545 1546 1550 1557 1561 1563 1562 1568 1574 1575 1573 1571 1570 1568 1565 1561 1557 1552 1547 1543 1539 1535 1531 1527 1524 1521 1518 1514 1511 1508 1506 1505 1504 1504 1505 1507 1508 1510 1512 1515
1550 1553 1547 1548 1551 1552 1554 1557 1560 1563 1566 1569 1573 1577 1576 1573 1571 1569 1565 1562 1558 1554 1549 1544 1539 1535 1531 1527 1523 1519 1516 1512 1508 1505 1502 1501 1500 1499 1500 1500 1502 1504 1506 1509
1551 1551 1551 1552 1555 1555 1559 1554 1556 1560 1570 1578 1576 1584 1580 1576 1572 1568 1565 1562 1558 1554 1550 1545 1540 1535 1531 1527 1522 1518 1514 1510 1506 1502 1499 1497 1496 1495 1495 1496 1497 1499 1501 1504
1555 1554 1554 1556 1557 1555 1557 1555 1557 1561 1570 1580 1582 1585 1586 1578 1576 1571 1567 1563 1559 1555 1551 1546 1541 1536 1532 1527 1522 1517 1513 1508 1504 1501 1498 1495 1493 1492 1492 1492 1493 1494 1496 1499
1555 1554 1555 1556 1555 1556 1556 1559 1563 1570 1576 1588 1587 1588 1589 1583 1579 1574 1569 1565 1561 1557 1552 1547 1542 1537 1532 1527 1522 1517 1512 1508 1504 1500 1496 1494 1492 1490 1490 1490 1490 1491 1492 1494
1561 1559 1557 1556 1558 1558 1560 1569 1580 1581 1591 1592 1585 1588 1588 1579 1576 1574 1570 1566 1562 1558 1553 1548 1543 1538 1533 1528 1522 1517 1513 1508 1503 1499 1496 1493 1491 1489 1488 1488 1488 1488 1489 1491
1568 1573 1562 1559 1561 1563 1566 1570 1584 1588 1593 1593 1587 1588 1585 1577 1575 1573 1570 1567 1563 1558 1554 1549 1545 1540 1534 1529 1524 1518 1513 1508 1504 1500 1496 1493 1491 1489 1487 1487 1486 1487 1487 1489
1569 1572 1562 1560 1560 1561 1565 1574 1575 1586 1589 1594 1591 1586 1580 1576 1575 1572 1570 1566 1563 1559 1555 1550 1546 1541 1536 1531 1526 1520 1515 1510 1505 1501 1498 1494 1491 1490 1488 1487 1486 1486 1486 1487
1561 1570 1566 1563 1562 1564 1567 1572 1580 1586 1592 1596 1592 1589 1589 1579 1576 1573 1569 1566 1563 1560 1556 1551 1547 1542 1538 1533 1528 1522 1517 1512 1508 1503 1499 1496 1493 1491 1490 1488 1487 1487 1486 1486
1559 1570 1571 1568 1570 1572 1571 1574 1583 1591 1591 1597 1598 1594 1579 1577 1575 1573 1570 1567 1564 1560 1557 1553 1549 1544 1540 1535 1530 1524 1519 1515 1510 1505 1501 1498 1495 1493 1491 1490 1489 1488 1487 1487
1561 1571 1578 1572 1569 1568 1569 1573 1580 1588 1593 1596 1599 1596 1575 1575 1573 1572 1569 1567 1564 1561 1558 1554 1550 1546 1541 1537 1532 1527 1522 1517 1512 1508 1504 1501 1498 1496 1493 1492 1490 1489 1488 1488
1560 1571 1583 1581 1579 1572 1571 1573 1578 1584 1592 1597 1598 1591 1574 1573 1572 1571 1569 1567 1564 1562 1558 1555 1551 1547 1543 1539 1534 1529 1524 1520 1515 1511 1507 1504 1500 1498 1495 1494 1492 1491 1490 1489
1558 1570 1578 1581 1579 1574 1573 1573 1577 1581 1591 1592 1590 1584 1576 1573 1572 1570 1569 1567 1565 1562 1559 1556 1552 1549 1545 1541 1536 1532 1527 1523 1518 1514 1510 1507 1503 1501 1498 1496 1495 1493 1492 1491
1558 1570 1570 1571 1569 1570 1571 1572 1574 1577 1581 1585 1581 1579 1574 1572 1571 1570 1569 1567 1565 1562 1560 1557 1553 1550 1546 1542 1538 1534 1530 1526 1522 1517 1514 1510 1507 1504 1501 1499 1497 1496 1495 1494
1561 1568 1570 1572 1570 1570 1571 1570 1571 1573 1575 1577 1576 1576 1570 1570 1570 1569 1568 1567 1565 1563 1560 1558 1555 1551 1548 1544 1541 1537 1533 1529 1525 1521 1517 1514 1511 1508 1505 1503 1501 1499 1498 1497
1565 1569 1576 1580 1574 1573 1576 1568 1569 1570 1570 1572 1575 1572 1568 1569 1569 1569 1568 1567 1565 1563 1561 1558 1556 1553 1550 1546 1543 1540 1536 1532 1528 1524 1521 1517 1514 1511 1508 1506 1504 1502 1501 1500
1565 1572 1581 1582 1578 1580 1572 1562 1563 1565 1566 1566 1566 1566 1566 1567 1568 1568 1568 1567 1565 1564 1561 1559 1557 1554 1551 1548 1545 1542 1539 1535 1531 1528 1524 1520 1517 1514 1512 1509 1507 1506 1504 1503
1561 1570 1580 1586 1583 1578 1565 1560 1561 1564 1564 1562 1563 1564 1565 1567 1568 1568 1567 1566 1565 1564 1562 1560 1557 1555 1552 1550 1547 1544 1541 1537 1534 1530 1527 1523 1520 1518 1515 1513 1511 1509 1507 1506
1564 1567 1578 1584 1579 1577 1564 1556 1557 1562 1565 1558 1559 1562 1564 1566 1570 1569 1567 1566 1565 1564 1562 1560 1558 1556 1553 1551 1548 1546 1542 1539 1536 1533 1530 1527 1524 1521 1519 1516 1514 1512 1510 1509
1568 1573 1578 1581 1579 1571 1556 1554 1558 1570 1564 1554 1556 1559 1562 1564 1566 1566 1566 1566 1565 1563 1562 1560 1558 1556 1554 1552 1550 1547 1544 1541 1539 1536 1533 1530 1527 1524 1522 1520 1517 1516 1514 1512
1566 1572 1576 1580 1577 1569 1550 1553 1557 1555 1551 1552 1554 1557 1560 1562 1563 1564 1565 1565 1564 1563 1562 1561 1559 1557 1555 1553 1551 1548 1546 1544 1541 1539 1536 1533 1530 1528 1526 1523 1521 1519 1517 1516
1559 1558 1561 1562 1558 1547 1545 1545 1547 1548 1549 1551 1553 1556 1559 1561 1562 1564 1564 1564 1564 1563 1562 1561 1559 1558 1556 1554 1552 1549 1548 1545 1543 1541 1538 1536 1534 1531 1529 1527 1525 1523 1521 1519
1551 1549 1552 1553 1545 1541 1542 1543 1545 1546 1548 1550 1553 1555 1557 1559 1561 1563 1563 1564 1564 1563 1562 1561 1559 1558 1556 1554 1552 1551 1549 1547 1545 1543 1541 1539 1537 1534 1532 1530 1529 1527 1525 1523
1542 1546 1548 1546 1540 1538 1538 1539 1542 1544 1547 1549 1552 1554 1556 1558 1560 1561 1562 1563 1563 1562 1562 1561 1559 1558 1557 1555 1553 1551 1549 1548 1546 1545 1543 1541 1539 1537 1536 1534 1532 1530 1528 1527
1535 1537 1540 1539 1532 1533 1533 1535 1539 1542 1544 1547 1550 1552 1555 1557 1558 1560 1561 1562 1562 1562 1561 1560 1559 1558 1557 1555 1553 1552 1550 1549 1547 1546 1544 1543 1541 1540 1538 1537 1535 1533 1532 1530